Carbondale, IL

5:48 PM CST on November 15, 2019 (GMT -0600)
Southern Illinois

Weather History for KMDH - August, 2019

Change the Weather History Date:

Sunday, August 18, 2019

  Actual Average Record
Temperature  
Mean Temperature 83 °F -  
Max Temperature 93 °F 89 °F 110 °F (1936)
Min Temperature 73 °F 63 °F 51 °F (1976)
Cooling Degree Days 18    
Growing Degree Days 33 (Base 50)    
Moisture  
Dew Point 72 °F    
Average Humidity 79    
Maximum Humidity 93    
Minimum Humidity 54    
Precipitation  
Precipitation 0.00 in - - ()
Sea Level Pressure  
Sea Level Pressure 29.90 in    
Wind  
Wind Speed 7 mph (SSW)    
Max Wind Speed 16 mph    
Max Gust Speed 37 mph    
Visibility 10 miles    
Events Rain , Thunderstorm    
Averages and records for this station are not official NWS values.
T = Trace of Precipitation, MM = Missing Value Source: NWS Daily Summary

Daily Weather History Graph

Daily Weather History Graph

Search for Another Location

Airport or City:

Astronomy

Aug. 18, 2019 Rise Set
Actual Time 6:14 AM CDT 7:46 PM CDT
Civil Twilight 5:47 AM CDT 8:13 PM CDT
Nautical Twilight 5:13 AM CDT 8:47 PM CDT
Astronomical Twilight 4:38 AM CDT 9:22 PM CDT
Moon 9:43 PM CDT (8/18) 8:57 AM CDT (8/18)
Length of Visible Light 14h 26m
Length of Day
13h 31m
Waning Gibbous, 91% of the Moon is Illuminated
Aug 18
Waning Gibbous
Aug 23
Last Quarter
Aug 30
New
Sep 5
First Quarter
Sep 13
Full

Hourly Weather History & Observations

Time (CDT) Temp. Heat Index Dew Point Humidity Pressure Visibility Wind Dir Wind Speed Gust Speed Precip Events Conditions
12:52 AM 75.9 °F - 71.1 °F 85% 29.91 in 10.0 mi South 4.6 mph - N/A   Clear
1:52 AM 73.9 °F - 71.1 °F 91% 29.89 in 10.0 mi SSE 5.8 mph - N/A   Clear
2:52 AM 75.0 °F - 71.1 °F 87% 29.87 in 10.0 mi South 5.8 mph - N/A   Clear
3:52 AM 73.9 °F - 70.0 °F 87% 29.87 in 10.0 mi South 6.9 mph - N/A   Clear
4:52 AM 73.0 °F - 70.0 °F 90% 29.88 in 10.0 mi South 5.8 mph - N/A   Clear
5:52 AM 73.0 °F - 70.0 °F 90% 29.89 in 10.0 mi SSE 3.5 mph - N/A   Clear
6:52 AM 73.0 °F - 70.0 °F 90% 29.90 in 10.0 mi SSW 5.8 mph - N/A   Clear
7:52 AM 77.0 °F - 72.0 °F 84% 29.91 in 10.0 mi South 5.8 mph - N/A   Clear
8:52 AM 79.0 °F - 71.1 °F 77% 29.93 in 10.0 mi SSW 5.8 mph - N/A   Clear
9:52 AM 82.9 °F 88.0 °F 72.0 °F 69% 29.93 in 10.0 mi SSW 11.5 mph - N/A   Clear
10:52 AM 88.0 °F 95.6 °F 73.0 °F 61% 29.92 in 10.0 mi SSW 12.7 mph - N/A   Clear
11:52 AM 91.0 °F 100.4 °F 73.9 °F 57% 29.90 in 10.0 mi SSW 13.8 mph 20.7 mph N/A   Clear
12:52 PM 90.0 °F 99.0 °F 73.9 °F 59% 29.89 in 10.0 mi South 16.1 mph 23.0 mph N/A   Clear
1:52 PM 93.0 °F 103.2 °F 73.9 °F 54% 29.88 in 10.0 mi South 12.7 mph 19.6 mph N/A   Scattered Clouds
2:20 PM 87.1 °F 93.6 °F 72.0 °F 61% 29.91 in 10.0 mi SW 11.5 mph - N/A Thunderstorm Scattered Clouds
2:49 PM 73.4 °F - 66.2 °F 78% 29.92 in 10.0 mi WNW 16.1 mph 36.8 mph 0.00 in Rain , Thunderstorm Light Rain
2:52 PM 73.9 °F - 66.9 °F 79% 29.91 in 10.0 mi NW 12.7 mph 26.5 mph 0.00 in Rain , Thunderstorm Light Thunderstorms and Rain
3:22 PM 77.0 °F - 72.0 °F 84% 29.90 in 8.0 mi WSW 6.9 mph - 0.00 in Rain , Thunderstorm Light Rain
3:30 PM 77.0 °F - 72.0 °F 84% 29.90 in 10.0 mi WNW 3.5 mph - 0.00 in   Scattered Clouds
3:52 PM 78.1 °F - 72.0 °F 81% 29.88 in 10.0 mi SE 4.6 mph - 0.00 in   Partly Cloudy
4:52 PM 82.0 °F 87.4 °F 73.0 °F 74% 29.88 in 10.0 mi SE 5.8 mph - N/A   Partly Cloudy
5:52 PM 82.0 °F 88.6 °F 75.0 °F 79% 29.85 in 10.0 mi South 10.4 mph - N/A   Clear
6:52 PM 82.0 °F 90.2 °F 77.0 °F 85% 29.90 in 10.0 mi NW 6.9 mph - 0.00 in   Clear
7:52 PM 79.0 °F - 73.0 °F 82% 29.89 in 10.0 mi SSW 5.8 mph - N/A   Clear
8:52 PM 75.9 °F - 70.0 °F 82% 29.90 in 10.0 mi SSW 4.6 mph - N/A   Clear
9:52 PM 73.0 °F - 71.1 °F 93% 29.94 in 10.0 mi Calm Calm - N/A   Clear
10:52 PM 73.0 °F - 70.0 °F 90% 29.94 in 10.0 mi SSW 4.6 mph - N/A   Clear
11:52 PM 73.0 °F - 69.1 °F 87% 29.95 in 10.0 mi SSW 4.6 mph - N/A   Clear